User: anonymous   Login
Location: Leiter
(44.7178°N, 106.2687°W)
Time: 17:31:23
(UTC+00:00)
Language:

Helios 1B rocket - Orbit

View from above orbital plane
View from above orbital plane
View from above satellite
View from above satellite

Ground track
Ground track

The orbit data is extracted from the following two-line orbital elements,

1 25979U 99064C   22334.37090429  .00002558  00000-0  21717-3 0  9999
2 25979  98.2298 304.0545 0005150 212.1835 147.9072 14.98882706248069
Epoch (UTC): 30 November 2022 08:54:06
Eccentricity: 0.0005150
inclination: 98.2298°
perigee height: 567 km
apogee height: 574 km
right ascension of ascending node: 304.0545°
argument of perigee: 212.1835°
revolutions per day: 14.98882706
mean anomaly at epoch: 147.9072°
orbit number at epoch: 24806

The dashed part of the orbit path shows where the satellite is in the earth's shadow,  

DLR